Regional Weather Roundup
Issued by NWS Albany, NY

Home | Current Version | Previous Version | Text Only | Print | Product List | Glossary On
Versions: 1 2 3 4 5 6 7 8 9 10 11 12 13 14 15 16 17 18 19 20 21 22 23 24 25 26 27 28
000
ASUS41 KALY 301310
RWRALY

NEW YORK STATE HOURLY WEATHER ROUNDUP
NATIONAL WEATHER SERVICE ALBANY NY
900 AM EDT FRI SEP 30 2016

NOTE: "FAIR" INDICATES FEW OR NO CLOUDS BELOW 12,000 FEET WITH NO
SIGNIFICANT WEATHER AND/OR NO OBSTRUCTIONS TO VISIBILITY.

NYZ032-033-038>043-046>054-057>066-NYZ062>081-082-084-301400-
EAST


CITY           SKY/WX    TMP DP  RH WIND       PRES   REMARKS
ALBANY         CLOUDY    57  43  59 NE7       30.45R
GLENS FALLS    PTSUNNY   56  40  55 NE8       30.46S
POUGHKEEPSIE   CLOUDY    56  47  71 NE9       30.37S
NEWBURGH       CLOUDY    55  50  82 E14       30.38R
MONTGOMERY     CLOUDY    56  47  71 NE12G22   30.37R
WHITE PLAINS   CLOUDY    57  49  74 NE12G23   30.32S
ISLIP          CLOUDY    61  55  81 NE23G39   30.29S
NEW YORK CITY  CLOUDY    62  54  74 NE26G32   30.30R
CENTRAL PARK   CLOUDY    58  50  75 NE10G18   30.33R
$$

NYZ005>009-017-018-044>046-055-056-301400-
CENTRAL


CITY           SKY/WX    TMP DP  RH WIND       PRES   REMARKS
FULTON         CLOUDY    56  43  61 VRB5      30.38S
SYRACUSE       LGT RAIN  54  45  71 E9        30.37F
ROME           CLOUDY    54  45  71 E8        30.42S
ELMIRA         LGT RAIN  54  46  74 NE7       30.33S
BINGHAMTON     LGT RAIN  47  44  90 E8        30.33F
MONTICELLO     CLOUDY    48  45  87 E10G17    30.39R
$$

NYZ026>034-041>043-087-301400-
NORTH


CITY           SKY/WX    TMP DP  RH WIND       PRES   REMARKS
WATERTOWN      CLOUDY    54  49  83 NE7       30.41F
FORT DRUM      NOT AVBL
OGDENSBURG       N/A     55  48  77 NE8       30.44S
MASSENA        PTSUNNY   53  47  79 NE8       30.47F
SARANAC LAKE   MOSUNNY   51  41  68 E6        30.43F
PLATTSBURGH    CLOUDY    56  49  77 CALM      30.48S
$$

NYZ001>004-010>016-019>021-085-301400-
WEST


CITY           SKY/WX    TMP DP  RH WIND       PRES   REMARKS
NIAGARA FALLS  CLOUDY    59  48  67 E12       30.29S
BUFFALO        CLOUDY    57  48  72 E13       30.30R
DUNKIRK        CLOUDY    58  52  80 NE9       30.25S
JAMESTOWN      CLOUDY    54  48  82 E8        30.25S
WELLSVILLE     LGT RAIN  50  48  93 E12       30.32F VSB 1
ROCHESTER      CLOUDY    57  45  64 E12       30.34S
PENN YAN       CLOUDY    55  46  71 CALM      30.36S
$$

             KEY
       WCI = WIND CHILL INDEX
       VSB = VISIBILITY
       HX  = HEAT INDEX
$$




USA.gov is the U.S. government's official web portal to all federal, state and local government web resources and services.